ATLAS 5 CENTAUR DEB, 43974

Orbit data source: Space-Track

ATLAS 5 CENTAUR DEB, 43974 is space debris in HEO originally from a launch on Wed, 17 Sep 2014 UTC launched from the Air Force Eastern Test Range (AFETR). Debris objects in space refer to the collection of defunct objects orbiting the Earth. Examples of debris include non-operational satellites, rocket bodies, and fragments generated from explosions, collisions, or faulty payload assembly.

Loading next visibility...
Identifier
43974, 2014-055AD
Orbit
HEO
Country
Flag of USUS
Related business
Flag of USUnited Launch Alliance/Lockheed Martin (US)
Manufacturer
Unknown
Mission
Spacecraft
Bus & Motor
Unknown
Mass
Unknown
Launch date (UTC)
2014-09-17 (11 years ago)
Launch vehicle
Unknown
Launch site
Air Force Eastern Test Range (AFETR)
Object type
Payload
Rocket body
Debris
Shape & HBR
Unknown
Radar Cross Section
Small (<0.1 m²)

Expand to show TLE details & history
Last TLE update: 1 year ago

TLE from 1 year ago
0 ATLAS 5 CENTAUR DEB
1 43974U 14055AD  24275.23317249 -.00000023  00000-0  00000-0 0  9999
2 43974  19.6556 194.9279 5015527  70.9832 335.4443  1.84493390 41008
Epoch: 2024-10-01T05:35Z
TLE epoch observation values (Epoch: 2024-10-01T05:35:46.103Z)
Latitude
0.00006°
Longitude
100.53264°
Altitude
11,708.713 km
Speed
5.466 km/s
True Right ascension
12h 59m 41s
True Declination
0° 00' 00"
Sunlit
Object was in daylight at epoch
Visualization orbit readout
Latitude
Unknown
Longitude
Unknown
Altitude
Unknown
Speed
Unknown
Apparent Right ascension
Unknown
Apparent Declination
Unknown
Sunlit
N/A
Visualization observer readout
Local Sidereal Time
22:02:03
Azimuth
Unknown
Elevation
Unknown
Doppler factor
Unknown
Orbital elements
Apogee altitude
35,790.211 km
Perigee altitude
7,619.839 km
Semi-major axis
28,083.162 km
Eccentricity
0.50155
Inclination
19.6556°
RAAN
194.9279°
Arg. of periapsis
70.9832°
True anomaly
288.83185°
Mean anomaly
335.4443°
Eccentric anomaly
315.19275°
Mean motion
0.46118 °/min
Orbital period
780.6 mins
BSTAR
0
Loading maneuver chart data...
Computing Atmospheric mass density...
Loading historical data...
Loading historical data...
Loading historical data...
Loading historical data...
Loading historical data...
Loading historical data...
Loading historical data...

Documentation

Showing up to 5 results
|